Weather History for Cushing, OK

Change the Weather History Date:

Wednesday, January 30, 2013

  Actual Average Record
Temperature  
Mean Temperature 32 °F -  
Max Temperature 41 °F 49 °F 74 °F (1971)
Min Temperature 24 °F 26 °F 1 °F (1966)
Degree Days  
Heating Degree Days 32    
Moisture  
Dew Point 30 °F    
Average Humidity 83    
Maximum Humidity 100    
Minimum Humidity 61    
Precipitation  
Precipitation 0.00 in - - ()
Sea Level Pressure  
Sea Level Pressure 29.90 in    
Wind  
Wind Speed 12 mph (NW)    
Max Wind Speed 22 mph    
Max Gust Speed 31 mph    
Visibility 10 miles    
Events      
Averages and records for this station are not official NWS values.
T = Trace of Precipitation, MM = Missing Value Source: NWS Daily Summary

Daily Weather History Graph

Daily Weather History Graph

Search for Another Location

Airport:

Trip Planner

Search our weather history database for the weather conditions in past years. The results will help you decide how hot, cold, wet, or windy it might be!

Date:

Astronomy

Jan. 30, 2013 Rise Set
Actual Time 7:28 AM CST 5:52 PM CST
Civil Twilight 7:01 AM CST 6:19 PM CST
Nautical Twilight 6:31 AM CST 6:50 PM CST
Astronomical Twilight 6:00 AM CST 7:20 PM CST
Moon 9:42 PM CST (1/30) 9:06 AM CST (1/30)
Length of Visible Light 11h 17m
Length of Day
10h 23m
Waning Gibbous, 87% of the Moon is Illuminated
Jan 30
Waning Gibbous
Feb 3
Last Quarter
Feb 10
New
Feb 17
First Quarter
Feb 25
Full

Hourly Weather History & Observations

Time (CST) Temp. Windchill Dew Point Humidity Pressure Visibility Wind Dir Wind Speed Gust Speed Precip Events Conditions
12:15 AM 37.4 °F 32.1 °F 35.6 °F 93% 29.65 in 10.0 mi WNW 6.9 mph - N/A   Mostly Cloudy
12:35 AM 37.4 °F 32.1 °F 37.4 °F 100% 29.66 in 10.0 mi WNW 6.9 mph - N/A   Mostly Cloudy
12:55 AM 37.4 °F 29.3 °F 35.6 °F 93% 29.65 in 10.0 mi NW 12.7 mph 21.9 mph N/A   Overcast
1:15 AM 37.4 °F 30.8 °F 35.6 °F 93% 29.64 in 10.0 mi NW 9.2 mph 16.1 mph N/A   Overcast
1:35 AM 37.4 °F 29.8 °F 35.6 °F 93% 29.66 in 10.0 mi NW 11.5 mph - N/A   Mostly Cloudy
1:55 AM 37.4 °F 29.3 °F 35.6 °F 93% 29.66 in 10.0 mi NW 12.7 mph 18.4 mph N/A   Mostly Cloudy
2:15 AM 37.4 °F 29.3 °F 35.6 °F 93% 29.67 in 10.0 mi NW 12.7 mph 19.6 mph N/A   Mostly Cloudy
2:35 AM 37.4 °F 29.3 °F 35.6 °F 93% 29.67 in 10.0 mi NW 12.7 mph 18.4 mph N/A   Overcast
2:55 AM 37.4 °F 28.9 °F 33.8 °F 87% 29.68 in 10.0 mi NW 13.8 mph 23.0 mph N/A   Overcast
3:15 AM 35.6 °F 27.5 °F 33.8 °F 93% 29.68 in 10.0 mi NW 11.5 mph 23.0 mph N/A   Overcast
3:35 AM 35.6 °F 27.1 °F 33.8 °F 93% 29.68 in 10.0 mi NW 12.7 mph 23.0 mph N/A   Overcast
3:55 AM 35.6 °F 27.1 °F 33.8 °F 93% 29.70 in 10.0 mi NW 12.7 mph 23.0 mph N/A   Overcast
4:15 AM 35.6 °F 25.9 °F 33.8 °F 93% 29.70 in 10.0 mi NW 16.1 mph 24.2 mph N/A   Overcast
4:35 AM 35.6 °F 27.5 °F 32.0 °F 87% 29.72 in 10.0 mi NW 11.5 mph 24.2 mph N/A   Mostly Cloudy
4:55 AM 35.6 °F 25.5 °F 32.0 °F 87% 29.73 in 10.0 mi NW 17.3 mph 26.5 mph N/A   Overcast
5:15 AM 35.6 °F 26.6 °F 32.0 °F 87% 29.75 in 10.0 mi NW 13.8 mph 24.2 mph N/A   Overcast
5:35 AM 35.6 °F 27.1 °F 32.0 °F 87% 29.76 in 10.0 mi NW 12.7 mph 20.7 mph N/A   Overcast
5:55 AM 35.6 °F 25.9 °F 32.0 °F 87% 29.77 in 10.0 mi NW 16.1 mph 24.2 mph N/A   Overcast
6:15 AM 35.6 °F 26.6 °F 32.0 °F 87% 29.78 in 10.0 mi NNW 13.8 mph 23.0 mph N/A   Overcast
6:35 AM 35.6 °F 25.2 °F 32.0 °F 87% 29.79 in 10.0 mi NW 18.4 mph 23.0 mph N/A   Overcast
6:55 AM 33.8 °F 23.5 °F 32.0 °F 93% 29.80 in 10.0 mi NW 16.1 mph 25.3 mph N/A   Overcast
7:15 AM 33.8 °F 23.5 °F 32.0 °F 93% 29.82 in 10.0 mi NNW 16.1 mph 29.9 mph N/A   Overcast
7:35 AM 33.8 °F 23.2 °F 32.0 °F 93% 29.83 in 10.0 mi NNW 17.3 mph 26.5 mph N/A   Overcast
7:55 AM 33.8 °F 22.2 °F 32.0 °F 93% 29.85 in 10.0 mi NNW 20.7 mph 27.6 mph N/A   Mostly Cloudy
8:15 AM 33.8 °F 22.5 °F 32.0 °F 93% 29.86 in 10.0 mi NNW 19.6 mph 27.6 mph N/A   Mostly Cloudy
8:35 AM 33.8 °F 23.5 °F 32.0 °F 93% 29.88 in 10.0 mi NNW 16.1 mph 27.6 mph N/A   Overcast
8:55 AM 33.8 °F 22.8 °F 32.0 °F 93% 29.89 in 10.0 mi NW 18.4 mph 25.3 mph N/A   Overcast
9:15 AM 33.8 °F 22.8 °F 32.0 °F 93% 29.90 in 10.0 mi NNW 18.4 mph 26.5 mph N/A   Overcast
9:35 AM 33.8 °F 23.9 °F 32.0 °F 93% 29.92 in 10.0 mi NW 15.0 mph 21.9 mph N/A   Overcast
9:55 AM 35.6 °F 25.2 °F 32.0 °F 87% 29.93 in 10.0 mi NW 18.4 mph 24.2 mph N/A   Overcast
10:15 AM 35.6 °F 24.2 °F 32.0 °F 87% 29.94 in 10.0 mi NW 21.9 mph 26.5 mph N/A   Mostly Cloudy
10:35 AM 35.6 °F 24.8 °F 32.0 °F 87% 29.95 in 10.0 mi NW 19.6 mph 27.6 mph N/A   Scattered Clouds
10:55 AM 35.6 °F 25.5 °F 32.0 °F 87% 29.96 in 10.0 mi NNW 17.3 mph 25.3 mph N/A   Mostly Cloudy
11:15 AM 37.4 °F 27.5 °F 32.0 °F 81% 29.97 in 10.0 mi WNW 18.4 mph 28.8 mph N/A   Mostly Cloudy
11:35 AM 37.4 °F 26.6 °F 32.0 °F 81% 29.97 in 10.0 mi NW 21.9 mph 31.1 mph N/A   Mostly Cloudy
11:55 AM 37.4 °F 26.6 °F 32.0 °F 81% 29.97 in 10.0 mi NW 21.9 mph 27.6 mph N/A   Scattered Clouds
12:15 PM 39.2 °F 29.0 °F 32.0 °F 75% 29.98 in 10.0 mi NW 21.9 mph 29.9 mph N/A   Mostly Cloudy
12:35 PM 41.0 °F 32.2 °F 32.0 °F 70% 29.98 in 10.0 mi NNW 18.4 mph 28.8 mph N/A   Mostly Cloudy
12:55 PM 37.4 °F 28.2 °F 32.0 °F 81% 29.97 in 10.0 mi NNW 16.1 mph 23.0 mph N/A   Mostly Cloudy
1:15 PM 37.4 °F 27.2 °F 32.0 °F 81% 29.98 in 10.0 mi NNW 19.6 mph 26.5 mph N/A   Mostly Cloudy
1:35 PM 37.4 °F 28.9 °F 30.2 °F 75% 29.98 in 10.0 mi NW 13.8 mph 23.0 mph N/A   Mostly Cloudy
1:55 PM 37.4 °F 27.8 °F 30.2 °F 75% 29.98 in 10.0 mi NW 17.3 mph 25.3 mph N/A   Overcast
2:15 PM 37.4 °F 28.5 °F 30.2 °F 75% 29.98 in 10.0 mi NW 15.0 mph 24.2 mph N/A   Mostly Cloudy
2:35 PM 39.2 °F 30.5 °F 30.2 °F 70% 29.98 in 10.0 mi NW 16.1 mph 24.2 mph N/A   Mostly Cloudy
2:55 PM 41.0 °F 33.5 °F 30.2 °F 65% 29.99 in 10.0 mi NW 13.8 mph 29.9 mph N/A   Mostly Cloudy
3:15 PM 41.0 °F 33.1 °F 30.2 °F 65% 29.98 in 10.0 mi NW 15.0 mph 21.9 mph N/A   Mostly Cloudy
3:35 PM 41.0 °F 33.9 °F 30.2 °F 65% 29.99 in 10.0 mi NNW 12.7 mph 18.4 mph N/A   Scattered Clouds
3:55 PM 41.0 °F 32.5 °F 30.2 °F 65% 29.99 in 10.0 mi NW 17.3 mph 20.7 mph N/A   Scattered Clouds
4:15 PM 39.2 °F 32.0 °F 30.2 °F 70% 29.99 in 10.0 mi WNW 11.5 mph 16.1 mph N/A   Clear
4:35 PM 41.0 °F 35.8 °F 30.2 °F 65% 29.98 in 10.0 mi NW 8.1 mph - N/A   Scattered Clouds
4:55 PM 41.0 °F 33.9 °F 28.4 °F 61% 29.98 in 10.0 mi WNW 12.7 mph 20.7 mph N/A   Clear
5:15 PM 41.0 °F 37.1 °F 30.2 °F 65% 29.99 in 10.0 mi WNW 5.8 mph 16.1 mph N/A   Clear
5:35 PM 39.2 °F 35.0 °F 28.4 °F 65% 30.00 in 10.0 mi WNW 5.8 mph - N/A   Clear
5:55 PM 37.4 °F 33.8 °F 28.4 °F 70% 30.00 in 10.0 mi WNW 4.6 mph - N/A   Clear
6:15 PM 35.6 °F 32.8 °F 26.6 °F 70% 30.00 in 10.0 mi WNW 3.5 mph - N/A   Clear
6:35 PM 33.8 °F - 26.6 °F 75% 30.01 in 10.0 mi Calm Calm - N/A   Clear
6:55 PM 33.8 °F 29.6 °F 26.6 °F 75% 30.02 in 10.0 mi WNW 4.6 mph - N/A   Clear
7:15 PM 33.8 °F 29.6 °F 26.6 °F 75% 30.03 in 10.0 mi WNW 4.6 mph - N/A   Clear
7:35 PM 33.8 °F - 24.8 °F 70% 30.03 in 10.0 mi Calm Calm - N/A   Clear
7:55 PM 32.0 °F - 23.0 °F 69% 30.04 in 10.0 mi Calm Calm - N/A   Clear
8:15 PM 32.0 °F 28.7 °F 23.0 °F 69% 30.04 in 10.0 mi NNW 3.5 mph - N/A   Clear
8:35 PM 30.2 °F - 23.0 °F 75% 30.05 in 10.0 mi Calm Calm - N/A   Clear
8:55 PM 28.4 °F - 21.2 °F 74% 30.05 in 10.0 mi Calm Calm - N/A   Clear
9:15 PM 26.6 °F - 23.0 °F 86% 30.05 in 10.0 mi Calm Calm - N/A   Clear
9:35 PM 26.6 °F - 24.8 °F 93% 30.05 in 10.0 mi Calm Calm - N/A   Clear
9:55 PM 26.6 °F - 24.8 °F 93% 30.05 in 10.0 mi Calm Calm - N/A   Clear
10:15 PM 26.6 °F - 24.8 °F 93% 30.05 in 10.0 mi Calm Calm - N/A   Clear
10:35 PM 26.6 °F - 26.6 °F 100% 30.06 in 10.0 mi Calm Calm - N/A   Clear
10:55 PM 26.6 °F - 24.8 °F 93% 30.05 in 10.0 mi Calm Calm - N/A   Clear
11:15 PM 26.6 °F - 24.8 °F 93% 30.05 in 10.0 mi Calm Calm - N/A   Clear
11:35 PM 24.8 °F - 23.0 °F 93% 30.05 in 10.0 mi Calm Calm - N/A   Clear
11:55 PM 24.8 °F - 23.0 °F 93% 30.05 in 10.0 mi Calm Calm - N/A   Clear